Location: Archemont
(49.1579°N, 1.7598°E)
Time: 15:25:22
(UTC+00:00)

COSMOS 2428 - Pass Details

Date: 03 February 2023
Orbit: 843 x 858 km, 70.9° (Epoch: 30 March)

Event Time Altitude Azimuth Distance (km) Brightness Sun altitude
Rises 20:10:02 0° 210° (SSW) 3,391 6.0 -32.3°
Reaches altitude 10° 20:12:28 10° 211° (SSW) 2,459 5.3 -32.7°
Enters shadow 20:14:24 22° 214° (SSW) 1,746 4.4 -33.0°
